User: anonymous   Login
Location: Calvatone
(45.1167°N, 10.4333°E)
Time: 06:32:17
(UTC+00:00)
Language:

FENGYUN 1C DEB - Orbit

View from above orbital plane
View from above orbital plane
View from above satellite
View from above satellite

Ground track
Ground track

The orbit data is extracted from the following two-line orbital elements,

1 29880U 99025GA  24141.90752955  .00002917  00000-0  19104-2 0  9992
2 29880  98.1536 120.8866 0240436 257.5160 156.2400 13.89666177876325
Epoch (UTC): 20 May 2024 21:46:50
Eccentricity: 0.0240436
inclination: 98.1536°
perigee height: 754 km
apogee height: 1105 km
right ascension of ascending node: 120.8866°
argument of perigee: 257.5160°
revolutions per day: 13.89666177
mean anomaly at epoch: 156.2400°
orbit number at epoch: 87632

The dashed part of the orbit path shows where the satellite is in the earth's shadow,  

DLR